Change the Weather History Date:

Wednesday, July 10, 2013

  Actual Average Record
Temperature  
Mean Temperature 70 °F -  
Max Temperature 79 °F 74 °F 87 °F (2007)
Min Temperature 62 °F 48 °F 39 °F (2003)
Cooling Degree Days 6    
Growing Degree Days 20 (Base 50)    
Moisture  
Dew Point 65 °F    
Average Humidity 82    
Maximum Humidity 94    
Minimum Humidity 61    
Precipitation  
Precipitation 0.29 in - - ()
Sea Level Pressure  
Sea Level Pressure 29.87 in    
Wind  
Wind Speed 2 mph (South)    
Max Wind Speed 12 mph    
Max Gust Speed 21 mph    
Visibility 6 miles    
Events Fog , Rain , Thunderstorm    
Averages and records for this station are not official NWS values.
T = Trace of Precipitation, MM = Missing Value Source: NWS Daily Summary

Daily Weather History Graph

Daily Weather History Graph

Search for Another Location

Airport or City:

Trip Planner

Search our weather history database for the weather conditions in past years. The results will help you decide how hot, cold, wet, or windy it might be!

Date:

Astronomy

Jul. 10, 2013 Rise Set
Actual Time 5:12 AM EDT 8:30 PM EDT
Civil Twilight 4:36 AM EDT 9:06 PM EDT
Nautical Twilight 3:49 AM EDT 9:52 PM EDT
Astronomical Twilight 2:51 AM EDT 10:50 PM EDT
Moon 7:37 AM EDT (7/10) 9:30 PM EDT (7/10)
Length of Visible Light 16h 30m
Length of Day
15h 18m
Waxing Crescent, 5% of the Moon is Illuminated
Jul 10
Waxing Crescent
Jul 15
First Quarter
Jul 22
Full
Jul 29
Last Quarter
Aug 6
New

Hourly Weather History & Observations

Time (EDT) Temp. Dew Point Humidity Pressure Visibility Wind Dir Wind Speed Gust Speed Precip Events Conditions
12:52 AM 64.9 °F 62.1 °F 90% 30.05 in 8.0 mi Calm Calm - N/A   Overcast
1:52 AM 64.9 °F 62.1 °F 90% 30.04 in 9.0 mi Calm Calm - N/A   Overcast
2:52 AM 64.0 °F 61.0 °F 90% 30.02 in 8.0 mi WNW 3.5 mph - N/A   Overcast
3:52 AM 63.0 °F 60.1 °F 90% 30.00 in 8.0 mi Calm Calm - N/A   Mostly Cloudy
4:52 AM 62.1 °F 59.0 °F 90% 30.00 in 4.0 mi Calm Calm - N/A   Partly Cloudy
5:01 AM 62.6 °F 59.0 °F 88% 30.01 in 4.0 mi Calm Calm - N/A   Mostly Cloudy
5:52 AM 63.0 °F 60.1 °F 90% 30.00 in 5.0 mi Calm Calm - N/A   Mostly Cloudy
6:52 AM 66.9 °F 63.0 °F 87% 29.99 in 9.0 mi Calm Calm - N/A   Scattered Clouds
7:52 AM 72.0 °F 64.0 °F 76% 29.96 in 10.0 mi NW 3.5 mph - N/A   Clear
8:52 AM 75.0 °F 64.0 °F 69% 29.94 in 10.0 mi Variable 6.9 mph - N/A   Scattered Clouds
9:52 AM 75.0 °F 63.0 °F 66% 29.93 in 10.0 mi South 8.1 mph 20.7 mph N/A   Overcast
10:52 AM 75.0 °F 63.0 °F 66% 29.92 in 10.0 mi SSE 11.5 mph - N/A   Overcast
11:52 AM 73.0 °F 64.9 °F 76% 29.92 in 10.0 mi SW 4.6 mph - 0.00 in Rain Light Rain
12:52 PM 79.0 °F 64.9 °F 62% 29.88 in 10.0 mi SSE 8.1 mph - 0.00 in   Mostly Cloudy
1:28 PM 78.8 °F 64.4 °F 61% 29.89 in 10.0 mi South 5.8 mph - N/A   Overcast
1:52 PM 78.1 °F 64.0 °F 62% 29.86 in 10.0 mi Variable 5.8 mph - N/A   Overcast
2:18 PM 77.0 °F 64.4 °F 65% 29.87 in 10.0 mi Variable 3.5 mph 16.1 mph N/A   Overcast
2:47 PM 78.8 °F 66.2 °F 65% 29.85 in 10.0 mi SSE 8.1 mph - N/A   Scattered Clouds
2:52 PM 78.1 °F 64.9 °F 64% 29.84 in 10.0 mi South 6.9 mph - N/A   Scattered Clouds
3:52 PM 75.9 °F 66.0 °F 71% 29.83 in 9.0 mi South 3.5 mph - N/A   Mostly Cloudy
4:33 PM 73.4 °F 68.0 °F 83% 29.83 in 1.8 mi SSW 3.5 mph - 0.05 in Rain Rain
4:45 PM 71.6 °F 66.2 °F 83% 29.82 in 2.5 mi South 3.5 mph - 0.07 in Rain Light Rain
4:52 PM 71.1 °F 66.9 °F 87% 29.82 in 2.0 mi Calm Calm - 0.09 in Rain Rain
4:59 PM 71.6 °F 66.2 °F 83% 29.83 in 1.5 mi WSW 3.5 mph - 0.03 in Rain Rain
5:29 PM 69.8 °F 66.2 °F 88% 29.80 in 2.0 mi ESE 4.6 mph - 0.11 in Rain Light Rain
5:52 PM 72.0 °F 66.0 °F 81% 29.79 in 2.5 mi SSE 4.6 mph - 0.18 in Rain Rain
5:55 PM 71.6 °F 66.2 °F 83% 29.80 in 3.0 mi SSE 4.6 mph - 0.01 in Rain , Thunderstorm Light Rain
6:14 PM 71.6 °F 66.2 °F 83% 29.79 in 5.0 mi Calm Calm - 0.02 in Rain Light Rain
6:52 PM 71.1 °F 66.9 °F 87% 29.80 in 8.0 mi Calm Calm - 0.02 in   Overcast
7:52 PM 71.1 °F 68.0 °F 90% 29.78 in 8.0 mi Calm Calm - 0.00 in   Scattered Clouds
8:52 PM 70.0 °F 66.9 °F 90% 29.79 in 7.0 mi Calm Calm - N/A   Partly Cloudy
9:22 PM 68.0 °F 66.2 °F 94% 29.80 in 1.8 mi Calm Calm - N/A   Partly Cloudy
9:36 PM 68.0 °F 64.4 °F 88% 29.81 in 0.8 mi Calm Calm - N/A   Scattered Clouds
9:52 PM 68.0 °F 66.0 °F 93% 29.79 in 0.2 mi Calm Calm - N/A Fog Fog
10:10 PM 66.2 °F 64.4 °F 94% 29.80 in 1.2 mi Calm Calm - N/A   Mostly Cloudy
10:17 PM 66.2 °F 64.4 °F 94% 29.80 in 0.8 mi Calm Calm - N/A   Mostly Cloudy
10:52 PM 66.9 °F 64.9 °F 93% 29.79 in 1.0 mi Calm Calm - N/A   Overcast
11:03 PM 68.0 °F 66.2 °F 94% 29.80 in 1.5 mi Calm Calm - N/A   Overcast
11:06 PM 68.0 °F 66.2 °F 94% 29.80 in 3.0 mi Calm Calm - N/A   Overcast
11:52 PM 68.0 °F 64.9 °F 90% 29.78 in 5.0 mi Calm Calm - N/A   Overcast